Location: Arclight Observatory
(36.5667°N, 87.3333°W)
Time: 19:50:47
(UTC-05:00)

ISS - Visible Passes

Search period start: 26 July 2017 00:00
Search period end: 05 August 2017 00:00
Orbit: 400 x 408 km, 51.6° (Epoch: 27 July)

Date Brightness Start Highest point End Pass type
(mag) Time Alt. Az. Time Alt. Az. Time Alt. Az.
26 Jul -0.7 21:32:14 10° WNW 21:34:23 16° NNW 21:36:33 10° NNE visible
27 Jul -1.4 20:39:06 10° W 20:41:53 26° NNW 20:44:40 10° NNE visible
29 Jul -0.7 20:32:05 10° WNW 20:33:57 14° NNW 20:35:48 10° N visible
03 Aug -0.8 22:39:05 10° NNW 22:40:05 14° N 22:40:05 14° N visible
04 Aug -0.9 21:47:43 10° N 21:48:23 10° NNE 21:49:03 10° NNE visible
